Flag for U.S.A. Weather past 2 weeks in Bridgeport, Connecticut, U.S.A.

Now
58 °F

Clear.


Feels Like: 58 °F
Forecast: 59 / 70 °F
Wind: 5 mph from Northeast

Location: Sikorsky Memorial Airport

Current Time: Sep 16, 2014 at 8:15:10 AM

Latest Report: Sep 16, 2014 at 6:52 AM


Visibility: 10 mi

Pressure: 30.01 "Hg

Humidity: 84%

Dew point: 53 °F

Location of BridgeportLocation

Historic Weather in Bridgeport — Graph

°F

Bridgeport temperature yesterday

Maximum temperature yesterday: 70 °F (at 4:52 PM)
Minimum temperature yesterday: 50 °F (at 5:52 AM)
Average temperature yesterday: 61 °F

Past Weeks' High & Low Weather Summary

 TemperatureHumidityPressure
High90 °F (Sep 2, 2:52 PM)96% (Sep 14, 12:52 AM)30.34 "Hg (Sep 14, 12:52 AM)
Low50 °F (Sep 15, 5:52 AM)36% (Sep 3, 12:52 PM)29.76 "Hg (Sep 2, 11:52 PM)
Average71 °F71%30.08 "Hg
* Reported Sep 1 6:52 AM — Sep 16 6:52 AM, Bridgeport, Weather by CustomWeather, © 2014

Note: Actual official high and low records may vary slightly from our data, if they occured in-between our weather recording intervals... More about our weather records

Advertising

Bridgeport weather history for previous 24 hours

 ConditionsComfort  
Time TempWeatherWind HumidityBarometerVisibility
6:52 AM
Sep 16
58 °FClear.5 mph84%30.01 "Hg10 mi
5:52 AM59 °FPartly cloudy.6 mph78%30.02 "Hg10 mi
4:52 AM66 °FPassing clouds.6 mph65%30.04 "Hg10 mi
3:52 AM65 °FPassing clouds.10 mph63%30.04 "Hg10 mi
2:52 AM65 °FPassing clouds.9 mph61%30.04 "Hg10 mi
1:52 AM65 °FPassing clouds.9 mph61%30.07 "Hg10 mi
12:52 AM61 °FClear.5 mph70%30.08 "Hg10 mi
11:52 PM
Sep 15
64 °FClear.6 mph63%30.09 "Hg10 mi
10:52 PM64 °FClear.7 mph61%30.10 "Hg10 mi
9:52 PM65 °FClear.7 mph61%30.10 "Hg10 mi
8:52 PM62 °FClear.No wind62%30.11 "Hg10 mi
7:52 PM65 °FSunny.5 mph52%30.12 "Hg10 mi
6:52 PM66 °FSunny.No wind50%30.11 "Hg10 mi
5:52 PM68 °FSunny.6 mph44%30.11 "Hg10 mi
4:52 PM70 °FSunny.10 mph42%30.12 "Hg10 mi
3:52 PM69 °FSunny.10 mph42%30.14 "Hg10 mi
2:52 PM69 °FSunny.14 mph41%30.15 "Hg10 mi
1:52 PM68 °FSunny.12 mph44%30.17 "Hg10 mi
12:52 PM66 °FSunny.10 mph49%30.19 "Hg10 mi
11:52 AM64 °FSunny.9 mph54%30.20 "Hg10 mi
10:52 AM64 °FSunny.7 mph52%30.23 "Hg10 mi
9:52 AM62 °FSunny.7 mph60%30.25 "Hg10 mi
8:52 AM58 °FPassing clouds.8 mph65%30.24 "Hg10 mi
Weather by CustomWeather, © 2014

See weather overviewHow to use our weather pages